OpenBCM V1.13 (Linux)

Packet Radio Mailbox

DB0FHN

[JN59NK Nuernberg]

 Login: GUEST





  
LU9DCE > KEP      07.12.19 21:04l 243 Lines 11987 Bytes #999 (0) @ WW
BID : 4606_LU9DCE
Read: DF7EAV DJ6UX GUEST
Subj: TLE 07 12
Path: DB0FHN<DB0BLO<DB0ERF<DB0RES<IR2UBX<EA2RCF<LU9DCE
Sent: 191207/1601Z 4606@LU9DCE.TOR.BA.ARG.SOAM LinBPQ6.0.19

            __    _  _  ___  ____   ___  ____    ____  ____  ____
           (  )  / )( \/ _ \(    \ / __)(  __)  (  _ \(  _ \/ ___)
           / (_/\) \/ (\__  )) D (( (__  ) _)    ) _ ( ) _ (\___ \
           \____/\____/(___/(____/ \___)(____)  (____/(____/(____/
               ESTACION DE PACKET RADIO - BUENOS AIRES (GF05OM)
                   BOLETINES INFORMATIVOS PROGRAMADOS (BIP)
                  SLACKWARE LINUX - HELLOCODELINUX@GMAIL.COM
+----------------------------------------------------------------------------+
OSCAR 7
1  7530U 74089B   19341.53177278 -.00000033  00000-0  77887-4 0  9999
2  7530 101.7712 307.5834 0012407  16.7218 103.0028 12.53641094 62057
OSCAR 11 (UoSAT 2)
1 14781U 84021B   19340.59551631 +.00000056 +00000-0 +12976-4 0  9998
2 14781 097.6000 357.1256 0009867 114.5744 245.6500 14.83125535903090
OSCAR 19 (LUSAT)
1 20442U 90005G   19340.74486737 +.00000010 +00000-0 +20036-4 0  9995
2 20442 098.6684 282.5978 0012002 010.8518 349.2923 14.32939870560812
EYESAT A
1 22825U 93061C   19340.91756016 +.00000005 +00000-0 +20006-4 0  9997
2 22825 098.9163 333.5755 0007772 214.9329 145.1343 14.30072868366152
ITAMSAT
1 22826U 93061D   19340.87930207 -.00000002 +00000-0 +17264-4 0  9999
2 22826 098.9103 333.5065 0008462 203.2329 156.8471 14.30407225366373
RADIO ROSTO
1 23439U 94085A   19340.86596163 -.00000026 +00000-0 +45552-3 0  9991
2 23439 064.8138 199.3130 0145778 079.6901 282.0421 11.27569139027195
JAS 2
1 24278U 96046B   19340.87898678 -.00000014 +00000-0 +19925-4 0  9992
2 24278 098.5627 111.2864 0350757 156.1425 205.6424 13.53095198150706
TECHSAT 1B
1 25397U 98043D   19340.75306207 -.00000012 +00000-0 +14013-4 0  9994
2 25397 098.7070 278.9479 0000220 231.1878 128.9280 14.23675584111995
ISS (ZARYA)
1 25544U 98067A   19341.56405351  .00000362  00000-0  14339-4 0  9992
2 25544  51.6434 221.7515 0007073   9.7916  83.1837 15.50092326202150
PCSAT
1 26931U 01043C   19340.58003352 -.00000048  00000-0  13416-4 0  9994
2 26931  67.0515 282.6988 0007250 264.6918  95.3356 14.30560831949419
SAUDISAT 1C
1 27607U 02058C   19340.47256295 -.00000062  00000-0  12171-4 0  9999
2 27607  64.5553 247.4494 0070522 222.9405 136.6180 14.75593348912237
CUTE-1
1 27844U 03031E   19340.61227439  .00000051  00000-0  42506-4 0  9990
2 27844  98.6839 346.2696 0008851 255.1191 104.9007 14.22209261852580
CUBESAT XI 4
1 27848U 03031J   19340.58288847  .00000040  00000-0  38219-4 0  9994
2 27848  98.6913 346.7737 0008694 268.5533  91.4649 14.21800319852426
MOZHAYETS 4
1 27939U 03042A   19341.40759943  .00000057  00000-0  18791-4 0  9990
2 27939  98.0640 114.1357 0011930 240.9028 119.0993 14.66822124865715
CUBESAT XI 5
1 28895U 05043F   19340.61694151  .00000119  00000-0  31706-4 0  9996
2 28895  97.9826 117.7494 0017164 168.0740 192.0872 14.63717928752486
CUTE-1.7+APD II
1 32785U 08021C   19341.52636315  .00000200  00000-0  27170-4 0  9998
2 32785  97.5589 333.2235 0014341  56.8113 303.4477 14.88385264629248
DELFI C3
1 32789U 08021G   19340.91451154 +.00000608 +00000-0 +44239-4 0  9997
2 32789 097.4447 025.2497 0010641 257.1240 102.8800 15.07305409632653
SEEDS
1 32791U 08021J   19341.52264940  .00000218  00000-0  27448-4 0  9993
2 32791  97.5324 339.3293 0014093  31.4053 328.8005 14.90926614629712
YUBELEINY
1 32953U 08025A   19341.55812162  .00000021  00000-0  75656-4 0  9991
2 32953  82.5059  37.8782 0020305 114.4025 245.9174 12.43092649523669
PRISM (HITOMI)
1 33493U 09002B   19341.54224427  .00000683  00000-0  65127-4 0  9993
2 33493  98.1284 269.0546 0014561 338.9324  21.1295 14.96828095590856
KKS-1 (KISEKI)
1 33499U 09002H   19340.91022866 +.00000078 +00000-0 +19466-4 0  9995
2 33499 098.3344 184.9737 0009708 028.5193 331.6544 14.75485693584041
SWISSCUBE
1 35932U 09051B   19340.74585424 +.00000124 +00000-0 +39149-4 0  9990
2 35932 098.5994 151.8989 0007675 009.2999 350.8338 14.56336879541633
BEESAT
1 35933U 09051C   19340.46391263  .00000093  00000-0  31914-4 0  9993
2 35933  98.6008 153.4325 0006161  25.2316 334.9180 14.56419343541741
ITUPSAT 1
1 35935U 09051E   19341.03286666  .00000092  00000-0  32323-4 0  9993
2 35935  98.6116 154.2426 0008393  18.8657 341.2849 14.55572777541562
XIWANG-1 (HOPE-1)
1 36122U 09072B   19340.74609389 -.00000054  00000-0 -29936-4 0  9999
2 36122 100.0804 335.1302 0007035 313.8559  46.1959 13.16352062479389
TISAT 1
1 36799U 10035E   19341.39901921  .00000428  00000-0  49140-4 0  9991
2 36799  98.1744 139.4956 0011221 239.9556 120.0548 14.91220144510354
JUGNU
1 37839U 11058B   19341.16315434  .00000304  00000-0  20447-4 0  9998
2 37839  19.9626  14.9416 0019152  57.7378 342.8463 14.12666228421538
SRMSAT
1 37841U 11058D   19341.54308788  .00000296  00000-0  17472-4 0  9991
2 37841  19.9725  72.9662 0011744 285.1730 185.5196 14.10644844420987
M-CUBED/EXP-1 PRIME
1 37855U 11061F   19340.92065603 +.00001085 +00000-0 +61834-4 0  9995
2 37855 101.7248 324.5122 0172248 289.1481 069.1155 15.05857123442070
HORYU 2
1 38340U 12025D   19341.38802175  .00000139  00000-0  28320-4 0  9992
2 38340  98.3093  24.9482 0010334 299.7923  60.2257 14.75783903406484
STRAND 1
1 39090U 13009E   19341.16238273  .00000040  00000-0  29151-4 0  9990
2 39090  98.4697 184.1099 0009880 134.5422 225.6572 14.35108559354983
SOMP
1 39134U 13015E   19340.65095241  .00000870  00000-0  48378-4 0  9998
2 39134  64.8615 186.4123 0037637 275.8775  83.8063 15.20552635366584
BEESAT 3
1 39135U 13015F   19340.88004022 +.00000496 +00000-0 +34004-4 0  9996
2 39135 064.8655 206.4024 0041978 278.6985 080.9387 15.17774991365830
BEESAT 2
1 39136U 13015G   19341.04842875  .00000674  00000-0  43468-4 0  9994
2 39136  64.8689 210.1898 0030601 284.3372  75.4357 15.17194831366166
CUBEBUG 1
1 39153U 13018D   19341.21736472  .00000156  00000-0  27212-4 0  9994
2 39153  97.9821  78.4175 0016924   7.4511 352.6950 14.80635054357192
ZACUBE
1 39417U 13066B   19341.50174853  .00000170  00000-0  27679-4 0  9994
2 39417  97.5613 345.3390 0058663 189.2430 170.7709 14.81188541326473
TRITON 1
1 39427U 13066M   19341.50861445  .00000143  00000-0  30906-4 0  9992
2 39427  97.6992 308.4793 0113246 336.1242  23.4735 14.67916162323545
GOMX 1
1 39430U 13066Q   19341.38580322  .00000221  00000-0  48551-4 0  9996
2 39430  97.7694 286.8195 0152402  73.0028 288.7805 14.59319392321646
HUMSAT D
1 39433U 13066T   19341.40782461  .00000470  00000-0  50869-4 0  9991
2 39433  97.5331  21.7063 0032215  88.0294 272.4615 14.92320155328681
CUBEBUG 2
1 39440U 13066AA  19340.53245635  .00000161  00000-0  29574-4 0  9995
2 39440  97.6136 328.9849 0078811 249.6927 109.5801 14.75926707325171
FUNCUBE 1
1 39444U 13066AE  19340.59650997 +.00000230 +00000-0 +34509-4 0  9997
2 39444 097.5578 346.5852 0057879 185.2975 174.7634 14.82022197324651
UWE-3
1 39446U 13066AG  19341.52998188  .00000164  00000-0  28463-4 0  9998
2 39446  97.5869 337.0938 0069045 218.3895 141.2393 14.78461045324658
SPROUT
1 39770U 14029E   19341.37593860  .00000437  00000-0  54242-4 0  9996
2 39770  97.8913  83.6401 0007945 238.4291 121.6146 14.87529485300356
UNISAT 6
1 40012U 14033C   19340.87798807 +.00000122 +00000-0 +25636-4 0  9990
2 40012 097.7320 199.8905 0056927 265.4610 094.0094 14.74041013293905
DUCHIFAT 1
1 40021U 14033M   19341.51724999  .00000210  00000-0  27255-4 0  9990
2 40021  97.9313 266.7209 0012216 197.9665 162.1123 14.90755619297144
QB50P1
1 40025U 14033R   19341.53370404  .00000233  00000-0  30743-4 0  9995
2 40025  97.9090 260.9405 0011607 208.9598 151.0976 14.89033205296897
CHUBUSAT 1
1 40300U 14070C   19341.29299981  .00000483  00000-0  23881-4 0  9997
2 40300  97.3123  50.9993 0019950 168.4695 232.0312 15.22277675282124
NUDT-PHONESAT
1 40900U 15049B   19341.58571615  .00001656  00000-0  72597-4 0  9990
2 40900  97.4362 349.2778 0011475 306.5441 169.8406 15.23363588233823
ZDPS 2A
1 40901U 15049C   19341.41619213  .00000811  00000-0  43227-4 0  9990
2 40901  97.4621 344.7954 0012876 332.7046 137.0154 15.17966670233287
ZDPS 2B
1 40902U 15049D   19341.39161828  .00001084  00000-0  56767-4 0  9998
2 40902  97.4570 342.1324 0012685 329.6331 136.0941 15.17868017233250
XW-2A
1 40903U 15049E   19341.41741765  .00001503  00000-0  36756-4 0  9998
2 40903  97.3170  24.9905 0011794 240.1208 246.1202 15.42395087236713
KAITUO 1A
1 40904U 15049F   19341.41312449  .00000502  00000-0  29945-4 0  9992
2 40904  97.4725 340.5437 0014038 339.3883 126.5935 15.15527617233001
OBJECT G
1 40905U 15049G   19341.41867368  .00000183  00000-0  13511-4 0  9995
2 40905  97.4779 337.9254 0015035 334.3119 131.5988 15.14407208232862
XW-2C
1 40906U 15049H   19341.45360803  .00000386  00000-0  23657-4 0  9999
2 40906  97.4726 340.7489 0014094 329.6019 187.9789 15.15849720233019
XW-2D
1 40907U 15049J   19341.40043885  .00000750  00000-0  42415-4 0  9991
2 40907  97.4715 340.3818 0013309 327.3018 142.4027 15.16056692233023
LILACSAT 2
1 40908U 15049K   19341.45752031  .00000408  00000-0  26104-4 0  9994
2 40908  97.4850 339.0567 0015214 334.5019 154.0458 15.13909113232790
XW-2F
1 40910U 15049M   19341.52721602  .00000928  00000-0  49467-4 0  9999
2 40910  97.4656 342.7763 0013714 317.5714 159.9193 15.17579667233075
XW-2B
1 40911U 15049N   19341.45009263  .00000388  00000-0  23662-4 0  9993
2 40911  97.4720 341.1075 0013331 327.9559 190.7173 15.15982680232929
KAITUO 1B
1 40912U 15049P   19341.29605877  .00000922  00000-0  46056-4 0  9995
2 40912  97.4500 346.4581 0013434 297.0786 183.8487 15.19925982233376
TIANWANG 1C (TW-1C)
1 40926U 15051B   19341.53395084  .00010859  00000-0  13822-3 0  9990
2 40926  97.1147  27.6637 0008984  92.8119  11.9303 15.59473814236906
